When you browse on this site, cookies collect data to enhance your experience and personalize the content and advertising you see.
Visit our Privacy Policy to learn more. By continuing to use the site, you agree to this use of cookies and data.
  • In Switzerland
  • List of Countries
  • For 7 days
  • Water Temperature
  • Weather Map
  • Weather Widgets
  • user-avatar
    Login

    Hourly Weather Ali Bayramli

    Today, 1 June, Monday

    Time Temperature Precipitation Wind Pressure Humidity
    00:00 +21°C° 0 mm 3 mps 758 mmHg 56%
    01:00 +20°C° 0 mm 3 mps 758 mmHg 58%
    02:00 +20°C° 0 mm 2 mps 757 mmHg 60%
    03:00 +20°C° 0 mm 1 mps 757 mmHg 62%
    04:00 +20°C° 0 mm 2 mps 757 mmHg 60%
    05:00 +20°C° 0 mm 2 mps 757 mmHg 58%
    06:00 +21°C° 0 mm 2 mps 757 mmHg 56%
    07:00 +24°C° 0 mm 2 mps 757 mmHg 51%
    08:00 +25°C° 0 mm 2 mps 757 mmHg 46%
    09:00 +27°C° 0 mm 2 mps 757 mmHg 41%
    10:00 +29°C° 0 mm 2 mps 757 mmHg 37%
    11:00 +30°C° 0 mm 3 mps 756 mmHg 33%
    12:00 +31°C° 0 mm 3 mps 756 mmHg 29%
    13:00 +33°C° 0 mm 4 mps 755 mmHg 28%
    14:00 +33°C° 0 mm 5 mps 755 mmHg 28%
    15:00 +33°C° 0 mm 6 mps 754 mmHg 27%
    16:00 +32°C° 0 mm 6 mps 754 mmHg 30%
    17:00 +29°C° 0 mm 6 mps 754 mmHg 34%
    18:00 +28°C° 0 mm 6 mps 753 mmHg 37%
    19:00 +26°C° 0 mm 5 mps 754 mmHg 43%
    20:00 +25°C° 0 mm 4 mps 754 mmHg 48%
    21:00 +22°C° 0 mm 3 mps 754 mmHg 54%
    22:00 +23°C° 0 mm 2 mps 754 mmHg 57%
    23:00 +21°C° 0 mm 2 mps 753 mmHg 60%

    Tomorrow, 2 June, Tuesday

    Time Temperature Precipitation Wind Pressure Humidity
    00:00 +22°C° 0 mm 1 mps 753 mmHg 63%
    01:00 +22°C° 0 mm 1 mps 753 mmHg 65%
    02:00 +21°C° 0 mm 1 mps 753 mmHg 67%
    03:00 +21°C° 0 mm 1 mps 752 mmHg 69%
    04:00 +21°C° 0 mm 1 mps 753 mmHg 67%
    05:00 +22°C° 0 mm 1 mps 753 mmHg 66%
    06:00 +23°C° 0 mm 1 mps 753 mmHg 64%
    07:00 +25°C° 0 mm 2 mps 753 mmHg 57%
    08:00 +27°C° 0 mm 2 mps 753 mmHg 49%
    09:00 +29°C° 0 mm 2 mps 753 mmHg 42%
    10:00 +31°C° 0 mm 2 mps 752 mmHg 37%
    11:00 +34°C° 0 mm 2 mps 752 mmHg 33%
    12:00 +36°C° 0 mm 2 mps 752 mmHg 28%
    13:00 +35°C° 0 mm 4 mps 751 mmHg 30%
    14:00 +35°C° 0 mm 6 mps 750 mmHg 32%
    15:00 +35°C° 0 mm 7 mps 750 mmHg 34%
    16:00 +33°C° 0 mm 7 mps 750 mmHg 40%
    17:00 +30°C° 0 mm 6 mps 750 mmHg 45%
    18:00 +28°C° 0 mm 5 mps 751 mmHg 51%
    19:00 +27°C° 0 mm 5 mps 751 mmHg 53%
    20:00 +26°C° 0 mm 4 mps 751 mmHg 56%
    21:00 +25°C° 0 mm 3 mps 751 mmHg 58%
    22:00 +25°C° 0 mm 2 mps 750 mmHg 60%
    23:00 +24°C° 0 mm 2 mps 750 mmHg 62%

    Day after tomorrow, 3 June, Wednesday

    Time Temperature Precipitation Wind Pressure Humidity
    00:00 +23°C° 0 mm 2 mps 750 mmHg 64%
    01:00 +23°C° 0 mm 2 mps 750 mmHg 66%
    02:00 +22°C° 0 mm 1 mps 750 mmHg 69%
    03:00 +22°C° 0 mm 1 mps 749 mmHg 71%
    04:00 +23°C° 0 mm 1 mps 750 mmHg 68%
    05:00 +23°C° 0 mm 1 mps 750 mmHg 65%
    06:00 +24°C° 0 mm 1 mps 750 mmHg 62%
    07:00 +26°C° 0 mm 2 mps 750 mmHg 55%
    08:00 +28°C° 0 mm 3 mps 750 mmHg 49%
    09:00 +30°C° 0 mm 4 mps 750 mmHg 42%
    10:00 +34°C° 0 mm 5 mps 750 mmHg 36%
    11:00 +36°C° 0 mm 6 mps 750 mmHg 30%
    12:00 +40°C° 0 mm 7 mps 750 mmHg 24%
    13:00 +41°C° 0 mm 6 mps 749 mmHg 20%
    14:00 +42°C° 0 mm 6 mps 749 mmHg 16%
    15:00 +43°C° 0 mm 5 mps 749 mmHg 13%
    16:00 +40°C° 0 mm 6 mps 749 mmHg 21%
    17:00 +35°C° 0 mm 7 mps 749 mmHg 29%
    18:00 +32°C° 0 mm 8 mps 749 mmHg 38%
    19:00 +30°C° 0 mm 7 mps 750 mmHg 40%
    20:00 +28°C° 0 mm 6 mps 750 mmHg 43%
    21:00 +27°C° 0 mm 6 mps 751 mmHg 46%
    22:00 +27°C° 0 mm 5 mps 751 mmHg 48%
    23:00 +26°C° 0 mm 4 mps 751 mmHg 49%

    4 June, Thursday

    Time Temperature Precipitation Wind Pressure Humidity
    00:00 +26°C° 0 mm 4 mps 752 mmHg 51%
    01:00 +25°C° 0 mm 3 mps 752 mmHg 53%
    02:00 +24°C° 0 mm 2 mps 752 mmHg 56%
    03:00 +24°C° 0 mm 1 mps 752 mmHg 58%
    04:00 +24°C° 0 mm 1 mps 753 mmHg 56%
    05:00 +25°C° 0 mm 2 mps 754 mmHg 54%
    06:00 +26°C° 0 mm 2 mps 754 mmHg 51%
    07:00 +27°C° 0 mm 2 mps 755 mmHg 48%
    08:00 +29°C° 0 mm 2 mps 755 mmHg 44%
    09:00 +30°C° 0 mm 3 mps 756 mmHg 41%
    10:00 +31°C° 0 mm 3 mps 756 mmHg 38%
    11:00 +34°C° 0 mm 4 mps 756 mmHg 36%
    12:00 +35°C° 0 mm 5 mps 756 mmHg 33%
    13:00 +34°C° 0 mm 6 mps 755 mmHg 35%
    14:00 +34°C° 0 mm 8 mps 755 mmHg 36%
    15:00 +33°C° 0 mm 10 mps 755 mmHg 37%
    16:00 +32°C° 0 mm 9 mps 755 mmHg 41%
    17:00 +29°C° 0 mm 9 mps 755 mmHg 44%
    18:00 +28°C° 0 mm 8 mps 755 mmHg 47%
    19:00 +27°C° 0 mm 7 mps 756 mmHg 52%
    20:00 +25°C° 0 mm 5 mps 756 mmHg 57%
    21:00 +23°C° 0 mm 4 mps 756 mmHg 61%
    22:00 +24°C° 0 mm 3 mps 756 mmHg 65%
    23:00 +23°C° 0 mm 2 mps 756 mmHg 69%

    5 June, Friday

    Time Temperature Precipitation Wind Pressure Humidity
    00:00 +21°C° 0 mm 2 mps 755 mmHg 72%
    01:00 +22°C° 0 mm 1 mps 755 mmHg 75%
    02:00 +21°C° 0 mm 1 mps 756 mmHg 77%
    03:00 +21°C° 0 mm 1 mps 756 mmHg 80%
    04:00 +21°C° 0 mm 1 mps 756 mmHg 76%
    05:00 +21°C° 0 mm 2 mps 756 mmHg 73%
    06:00 +22°C° 0 mm 3 mps 757 mmHg 69%
    07:00 +25°C° 0 mm 4 mps 757 mmHg 61%
    08:00 +27°C° 0 mm 4 mps 757 mmHg 52%
    09:00 +30°C° 0 mm 5 mps 757 mmHg 44%
    10:00 +32°C° 0 mm 4 mps 757 mmHg 39%
    11:00 +34°C° 0 mm 3 mps 758 mmHg 35%
    12:00 +35°C° 0 mm 3 mps 758 mmHg 30%
    13:00 +35°C° 0 mm 5 mps 757 mmHg 31%
    14:00 +34°C° 0 mm 7 mps 757 mmHg 32%
    15:00 +34°C° 0 mm 10 mps 757 mmHg 32%
    16:00 +32°C° 0 mm 10 mps 758 mmHg 37%
    17:00 +31°C° 0 mm 10 mps 758 mmHg 41%
    18:00 +28°C° 0 mm 10 mps 758 mmHg 46%
    19:00 +27°C° 0 mm 9 mps 759 mmHg 49%
    20:00 +26°C° 0 mm 8 mps 760 mmHg 51%
    21:00 +26°C° 0 mm 7 mps 760 mmHg 54%
    22:00 +24°C° 0 mm 6 mps 761 mmHg 55%
    23:00 +25°C° 0 mm 5 mps 761 mmHg 55%

    6 June, Saturday

    Time Temperature Precipitation Wind Pressure Humidity
    00:00 +25°C° 0 mm 4 mps 761 mmHg 56%
    01:00 +24°C° 0 mm 3 mps 761 mmHg 59%
    02:00 +22°C° 0 mm 3 mps 761 mmHg 62%
    03:00 +21°C° 0 mm 2 mps 761 mmHg 65%
    04:00 +23°C° 0 mm 2 mps 761 mmHg 64%
    05:00 +23°C° 0 mm 2 mps 761 mmHg 63%
    06:00 +23°C° 0 mm 2 mps 761 mmHg 62%
    07:00 +25°C° 0 mm 2 mps 761 mmHg 56%
    08:00 +26°C° 0 mm 2 mps 761 mmHg 51%
    09:00 +28°C° 0 mm 2 mps 761 mmHg 45%
    10:00 +29°C° 0 mm 3 mps 761 mmHg 40%
    11:00 +30°C° 0 mm 3 mps 761 mmHg 36%
    12:00 +33°C° 0 mm 3 mps 761 mmHg 31%
    13:00 +33°C° 0 mm 4 mps 760 mmHg 31%
    14:00 +33°C° 0 mm 5 mps 760 mmHg 31%
    15:00 +33°C° 0 mm 6 mps 759 mmHg 31%
    16:00 +32°C° 0 mm 6 mps 759 mmHg 34%
    17:00 +30°C° 0 mm 6 mps 759 mmHg 36%
    18:00 +28°C° 0 mm 6 mps 759 mmHg 39%
    19:00 +27°C° 0 mm 4 mps 760 mmHg 42%
    20:00 +26°C° 0 mm 3 mps 760 mmHg 46%
    21:00 +25°C° 0 mm 2 mps 760 mmHg 49%
    22:00 +24°C° 0 mm 2 mps 760 mmHg 52%
    23:00 +23°C° 0 mm 1 mps 760 mmHg 55%
    Show more